EW1390 Weather Reports


time (UTC)temp
C
wind
direction
speed
KPH
gust
KPH
rain 1hr
cm
rain 24hr
cm
rain mn
cm
humidity
%
barometer
mb
20260509064505 12 276 0.0 0.0 0.00 0.00 0.00 87 1007.2
20260509063005 13 276 0.0 0.0 0.00 0.00 0.00 87 1007.3
20260509061502 13 276 0.0 0.0 0.00 0.00 0.00 87 1007.3
20260509060002 13 276 0.0 0.0 0.00 0.00 0.00 86 1007.3
20260509054504 13 276 0.0 0.0 0.00 0.00 0.00 86 1007.3
20260509053003 13 276 0.0 0.0 0.00 0.00 0.00 85 1007.3
20260509051502 14 276 0.0 0.0 0.00 0.00 0.00 84 1007.1
20260509050101 14 276 0.0 0.0 0.00 0.00 0.00 84 1007.1
20260509044600 15 276 0.0 4.8 0.00 0.00 0.00 83 1007.0
20260509043102 15 248 1.6 3.2 0.00 0.00 0.00 82 1007.1
20260509041600 15 248 0.0 4.8 0.00 0.00 0.00 81 1006.9
20260509040114 16 248 1.6 4.8 0.00 0.00 0.00 79 1006.8
20260509034629 16 248 0.0 1.6 0.00 0.00 0.00 77 1006.8
20260509033057 17 248 0.0 0.0 0.00 0.00 0.00 75 1006.8
20260509031557 18 248 0.0 0.0 0.00 0.00 0.00 73 1006.7
20260509030105 19 248 0.0 0.0 0.00 0.00 0.00 69 1006.6
20260509024555 20 248 0.0 0.0 0.00 0.00 0.00 65 1006.6
20260509023054 21 248 0.0 0.0 0.00 0.00 0.00 61 1006.4
20260509021556 23 248 0.0 1.6 0.00 0.00 0.00 55 1006.5
20260509020053 24 248 0.0 4.8 0.00 0.00 0.00 49 1006.5
20260509014551 25 309 0.0 4.8 0.00 0.00 0.00 42 1006.5
20260509013104 26 252 0.0 8.0 0.00 0.00 0.00 38 1006.5
20260509011558 26 245 0.0 4.8 0.00 0.00 0.00 38 1006.6
20260509010047 26 238 1.6 9.7 0.00 0.00 0.00 36 1006.6
20260509004546 26 247 1.6 6.4 0.00 0.00 0.00 36 1006.7
20260509003106 26 279 0.0 6.4 0.00 0.00 0.00 35 1006.8
20260509001545 27 264 1.6 6.4 0.00 0.00 0.00 37 1006.9
20260509000052 27 316 1.6 6.4 0.00 0.00 0.00 40 1006.9
20260508234543 27 230 3.2 11.3 0.00 0.00 0.00 43 1006.9
20260508233040 27 277 1.6 6.4 0.00 0.00 0.00 45 1007.0
20260508231545 27 268 0.0 8.0 0.00 0.00 0.00 44 1007.1
20260508230036 27 224 0.0 8.0 0.00 0.00 0.00 44 1007.3
20260508224536 27 337 1.6 9.7 0.00 0.00 0.00 44 1007.7
20260508223031 27 245 4.8 11.3 0.00 0.00 0.00 38 1007.8
20260508221530 27 222 0.0 8.0 0.00 0.00 0.00 39 1007.9
20260508220027 26 244 1.6 6.4 0.00 0.00 0.00 35 1008.1
20260508214525 26 220 1.6 6.4 0.00 0.00 0.00 32 1008.2
20260508213023 26 276 0.0 6.4 0.00 0.00 0.00 43 1008.3
20260508211526 26 157 1.6 8.0 0.00 0.00 0.00 43 1008.5
20260508210019 26 265 1.6 11.3 0.00 0.00 0.00 45 1008.5
20260508204518 26 5 1.6 12.9 0.00 0.00 0.00 42 1008.5
20260508203019 26 198 1.6 6.4 0.00 0.00 0.00 46 1008.6
20260508201615 26 254 3.2 8.0 0.00 0.00 0.00 46 1008.7
20260508200011 25 278 0.0 4.8 0.00 0.00 0.00 50 1008.9
20260508194509 25 225 0.0 6.4 0.00 0.00 0.00 48 1009.0
20260508193009 25 178 1.6 11.3 0.00 0.00 0.00 48 1009.1
20260508191505 25 234 3.2 11.3 0.00 0.00 0.00 49 1009.2
20260508190004 25 88 0.0 6.4 0.00 0.00 0.00 53 1009.2
20260508184503 25 159 1.6 8.0 0.00 0.00 0.00 56 1009.4
20260508183002 24 261 0.0 6.4 0.00 0.00 0.00 53 1009.4
20260508181600 23 167 0.0 6.4 0.00 0.00 0.00 49 1009.6
20260508180055 23 153 0.0 6.4 0.00 0.00 0.00 54 1009.7
20260508174602 22 140 0.0 9.7 0.00 0.00 0.00 59 1009.6
20260508173046 21 251 0.0 4.8 0.00 0.00 0.00 69 1009.5
20260508171542 19 207 0.0 4.8 0.00 0.00 0.00 77 1009.5
20260508170038 16 207 0.0 4.8 0.00 0.00 0.00 90 1009.5
20260508164539 15 202 0.0 0.0 0.00 0.00 0.00 96 1009.6
20260508163046 14 246 0.0 0.0 0.00 0.00 0.00 96 1009.7
20260508161527 13 246 0.0 0.0 0.00 0.00 0.00 96 1009.7
20260508160025 12 246 0.0 0.0 0.00 0.00 0.00 96 1009.7
20260508154522 11 246 0.0 0.0 0.00 0.03 0.00 96 1009.8
20260508153027 11 246 0.0 0.0 0.00 0.03 0.00 95 1009.7
20260508151528 10 246 0.0 0.0 0.00 0.03 0.00 95 1009.7
20260508150026 9 246 0.0 0.0 0.00 0.03 0.00 95 1009.7
20260508144519 8 242 0.0 0.0 0.00 0.03 0.00 94 1009.6
20260508143017 8 242 0.0 0.0 0.00 0.03 0.00 94 1009.6
20260508141516 8 242 0.0 0.0 0.00 0.03 0.00 94 1009.4
20260508140014 8 242 0.0 0.0 0.00 0.03 0.00 94 1009.2
20260508134520 8 242 0.0 0.0 0.00 0.03 0.00 94 1009.1
20260508133012 8 242 0.0 0.0 0.00 0.03 0.00 94 1009.1
20260508131511 8 242 0.0 0.0 0.00 0.03 0.00 94 1009.1
20260508130009 8 242 0.0 0.0 0.00 0.03 0.00 93 1009.0
20260508124507 8 242 0.0 0.0 0.00 0.03 0.00 93 1008.9
20260508123007 8 242 0.0 0.0 0.00 0.03 0.00 93 1008.9
20260508121506 8 242 0.0 0.0 0.00 0.03 0.00 93 1008.8
20260508120003 8 242 0.0 0.0 0.00 0.03 0.00 93 1008.9
20260508114501 8 242 0.0 0.0 0.00 0.03 0.00 93 1008.8
20260508113100 8 242 0.0 0.0 0.00 0.03 0.00 93 1008.8
20260508111558 9 242 0.0 0.0 0.00 0.03 0.00 93 1009.0
20260508110125 9 242 0.0 0.0 0.00 0.03 0.00 93 1008.9
20260508104600 9 242 0.0 0.0 0.00 0.03 0.00 92 1008.8
20260508103052 10 242 0.0 0.0 0.00 0.03 0.00 92 1008.8
20260508101555 10 242 0.0 0.0 0.00 0.03 0.00 92 1008.8
20260508100048 10 242 0.0 0.0 0.00 0.03 0.00 92 1008.9
20260508094553 10 242 0.0 0.0 0.00 0.03 0.00 92 1008.8
20260508093054 10 242 0.0 0.0 0.00 0.03 0.00 92 1008.7
20260508091541 10 242 0.0 0.0 0.00 0.03 0.00 92 1008.6
20260508090057 11 242 0.0 0.0 0.00 0.03 0.00 92 1008.6
20260508084536 11 242 0.0 0.0 0.00 0.03 0.00 91 1008.6
20260508083033 11 242 0.0 0.0 0.00 0.03 0.00 91 1008.6
20260508081532 11 242 0.0 0.0 0.00 0.03 0.00 91 1008.5
20260508080037 11 242 0.0 0.0 0.00 0.03 0.00 91 1008.5
20260508074535 12 242 0.0 0.0 0.00 0.03 0.00 91 1008.6
20260508073026 12 242 0.0 0.0 0.00 0.03 0.00 91 1008.6
20260508071527 12 242 0.0 0.0 0.00 0.03 0.00 90 1008.6
20260508070020 12 242 0.0 0.0 0.00 0.03 0.00 90 1008.7